* Astronomy

Members Login
Username 
 
Password 
    Remember Me  
Post Info TOPIC: Asteroid 2011 CU46


L

Posts: 131433
Date:
Asteroid 2011 CU46
Permalink  
 


Orbital elements:
2011 CU46 Earth MOID = 0.0034 AU
Epoch 2011 Feb. 8.0 TT = JDT 2455600.5 MPC
M 30.59719 (2000.0) P Q
n 0.59064736 Peri. 269.78287 +0.63729164 -0.76536068
a 1.4068589 Node 140.15408 +0.75102698 +0.59070423
e 0.5356497 Incl. 8.06596 +0.17267840 +0.25552208
P 1.67 H 25.5 G 0.15 U 9

MPEC 2011 - C73


__________________
Page 1 of 1  sorted by
 
Quick Reply

Please log in to post quick replies.



Create your own FREE Forum
Report Abuse
Powered by ActiveBoard